Change the Weather History Date:

Friday, March 22, 2013

  Actual Average Record
Temperature  
Mean Temperature 40 °F -  
Max Temperature 52 °F 57 °F 84 °F (2011)
Min Temperature 30 °F 33 °F 9 °F (2002)
Degree Days  
Heating Degree Days 25    
Moisture  
Dew Point 29 °F    
Average Humidity 73    
Maximum Humidity 89    
Minimum Humidity 46    
Precipitation  
Precipitation 0.00 in - - ()
Sea Level Pressure  
Sea Level Pressure 29.92 in    
Wind  
Wind Speed 7 mph (NE)    
Max Wind Speed 14 mph    
Max Gust Speed -    
Visibility 8 miles    
Events      
Averages and records for this station are not official NWS values.
T = Trace of Precipitation, MM = Missing Value Source: NWS Daily Summary

Daily Weather History Graph

Daily Weather History Graph

Search for Another Location

Airport or City:

Trip Planner

Search our weather history database for the weather conditions in past years. The results will help you decide how hot, cold, wet, or windy it might be!

Date:

Astronomy

Mar. 22, 2013 Rise Set
Actual Time 7:31 AM CDT 7:45 PM CDT
Civil Twilight 7:05 AM CDT 8:11 PM CDT
Nautical Twilight 6:34 AM CDT 8:42 PM CDT
Astronomical Twilight 6:03 AM CDT 9:14 PM CDT
Moon 3:17 PM CDT (3/22) 4:28 AM CDT (3/22)
Length of Visible Light 13h 06m
Length of Day
12h 14m
Waxing Gibbous, 77% of the Moon is Illuminated
Mar 22
Waxing Gibbous
Mar 27
Full
Apr 2
Last Quarter
Apr 10
New
Apr 18
First Quarter

Hourly Weather History & Observations

Time (CDT) Temp. Windchill Dew Point Humidity Pressure Visibility Wind Dir Wind Speed Gust Speed Precip Events Conditions
12:52 AM 34.0 °F 27.2 °F 28.0 °F 79% 29.87 in 10.0 mi East 8.1 mph - N/A   Overcast
1:52 AM 34.0 °F 29.8 °F 28.9 °F 82% 29.93 in 9.0 mi NNE 4.6 mph - N/A   Overcast
2:52 AM 33.1 °F 26.9 °F 28.9 °F 85% 29.91 in 6.0 mi NNE 6.9 mph - N/A   Overcast
3:52 AM 32.0 °F 24.8 °F 28.9 °F 88% 29.89 in 4.0 mi NNE 8.1 mph - N/A   Overcast
4:52 AM 32.0 °F 25.6 °F 28.0 °F 85% 29.88 in 8.0 mi NNE 6.9 mph - N/A   Overcast
5:52 AM 30.9 °F 23.5 °F 28.0 °F 89% 29.90 in 6.0 mi NE 8.1 mph - N/A   Overcast
6:52 AM 30.9 °F 25.2 °F 28.0 °F 89% 29.93 in 6.0 mi NNE 5.8 mph - N/A   Overcast
7:52 AM 30.9 °F 24.3 °F 28.0 °F 89% 29.95 in 6.0 mi East 6.9 mph - N/A   Overcast
8:52 AM 30.9 °F 24.3 °F 27.0 °F 85% 29.95 in 6.0 mi NE 6.9 mph - N/A   Overcast
9:52 AM 32.0 °F 27.5 °F 28.0 °F 85% 29.97 in 6.0 mi NE 4.6 mph - N/A   Overcast
10:52 AM 33.1 °F 28.7 °F 28.0 °F 82% 29.99 in 7.0 mi NNW 4.6 mph - N/A   Overcast
11:42 AM 35.6 °F 29.9 °F 28.4 °F 75% 29.93 in 9.0 mi NNE 6.9 mph - N/A   Overcast
11:52 AM 36.0 °F 30.3 °F 28.0 °F 73% 29.95 in 9.0 mi North 6.9 mph - N/A   Overcast
12:29 PM 39.2 °F 37.0 °F 28.4 °F 65% 29.94 in 10.0 mi Variable 3.5 mph - N/A   Overcast
12:52 PM 39.9 °F - 28.9 °F 65% 29.95 in 10.0 mi Calm Calm - N/A   Mostly Cloudy
1:33 PM 44.6 °F - 28.4 °F 53% 29.92 in 10.0 mi Calm Calm - N/A   Partly Cloudy
1:52 PM 45.0 °F 42.6 °F 28.9 °F 53% 29.91 in 10.0 mi ENE 4.6 mph - N/A   Partly Cloudy
2:52 PM 48.9 °F - 30.0 °F 48% 29.88 in 10.0 mi Variable 6.9 mph - N/A   Clear
3:52 PM 50.0 °F - 30.0 °F 46% 29.87 in 10.0 mi NNE 4.6 mph - N/A   Mostly Cloudy
4:52 PM 50.0 °F - 30.0 °F 46% 29.86 in 10.0 mi NNW 4.6 mph - N/A   Scattered Clouds
6:52 PM 46.0 °F 41.0 °F 30.9 °F 56% 29.87 in 10.0 mi ENE 10.4 mph - N/A   Partly Cloudy
7:52 PM 43.0 °F 36.0 °F 30.9 °F 62% 29.89 in 10.0 mi ENE 13.8 mph - N/A   Mostly Cloudy
8:52 PM 39.0 °F 32.8 °F 30.0 °F 70% 29.92 in 10.0 mi ENE 9.2 mph - N/A   Clear
9:52 PM 37.0 °F 30.4 °F 28.9 °F 73% 29.93 in 10.0 mi East 9.2 mph - N/A   Clear
10:52 PM 34.0 °F 28.8 °F 28.0 °F 79% 29.95 in 10.0 mi ENE 5.8 mph - N/A   Clear
11:52 PM 33.1 °F 25.5 °F 28.9 °F 85% 29.95 in 10.0 mi ENE 9.2 mph - N/A   Clear